This is the latest recevied weather packets stored in our database for station/object EB1BWO-11. If no packets are shown the sender has not sent any weather packets the latest 10 day(s).
| Time | Temp. | Humidity | Pressure | Rain* | Wind** | Luminosity | Snow |
|---|---|---|---|---|---|---|---|
| 1788359874 | 35° C | 46% | 1025.7 hPa | - | - | - | - |
| 1788358974 | 32.22° C | 47% | 1025.6 hPa | - | - | - | - |
| 1788358074 | 35° C | 44% | 1025.8 hPa | - | - | - | - |
| 1788357173 | 31.67° C | 48% | 1025.8 hPa | - | - | - | - |
| 1788356273 | 30.56° C | 51% | 1025.9 hPa | - | - | - | - |
| 1788355373 | 30° C | 49% | 1026 hPa | - | - | - | - |
| 1788354473 | 32.22° C | 46% | 1025.9 hPa | - | - | - | - |
| 1788353573 | 32.22° C | 47% | 1026 hPa | - | - | - | - |
| 1788352673 | 33.33° C | 46% | 1026 hPa | - | - | - | - |
| 1788351788 | 37.78° C | 39% | 1025.9 hPa | - | - | - | - |
| 1788350872 | 40.56° C | 35% | 1025.9 hPa | - | - | - | - |
| 1788349972 | 34.44° C | 44% | 1025.8 hPa | - | - | - | - |
| 1788349072 | 39.44° C | 38% | 1025.9 hPa | - | - | - | - |
| 1788348172 | 47.22° C | 30% | 1025.9 hPa | - | - | - | - |
| 1788347272 | 43.89° C | 35% | 1026.2 hPa | - | - | - | - |
| 1788346372 | 35.56° C | 42% | 1026.2 hPa | - | - | - | - |
| 1788345472 | 38.33° C | 38% | 1026.3 hPa | - | - | - | - |
| 1788344572 | 38.33° C | 38% | 1026.3 hPa | - | - | - | - |
| 1788343671 | 33.33° C | 45% | 1026.4 hPa | - | - | - | - |
| 1788342771 | 30.56° C | 50% | 1026.3 hPa | - | - | - | - |
| 1788341871 | 29.44° C | 51% | 1026.3 hPa | - | - | - | - |
| 1788340971 | 28.89° C | 52% | 1026 hPa | - | - | - | - |
| 1788340071 | 27.78° C | 53% | 1025.8 hPa | - | - | - | - |
| 1788339171 | 27.22° C | 53% | 1025.7 hPa | - | - | - | - |
| 1788338271 | 26.11° C | 55% | 1025.6 hPa | - | - | - | - |
* Rain since midnight (hover to see other rain measurements)
** Current wind speed in m/s (hover to see current wind gust speed)